Showing default

PRSC-E03, 68835

Orbit data source: Space-Track

PRSC-E03, 68835 is a Chinese payload satellite in LEO that was launched on Sat, 25 Apr 2026 UTC launched from the Taiyaun Space Center, China (TSC). Payload-class satellites include a variety of spacecraft equipped with specific instruments for various scientific and technological missions. These include communications satellites like Starlink; space stations such as the ISS; scientific satellites like the Hubble; Earth observation satellites from companies like Planet Labs, Umbra, and HawkEye 360; GPS; miniature CubeSats for education and research; and military/defense satellites.

Loading next visibility...
Identifier
68835, 2026-092A
Orbit
LEO
Country
Flag of CNCN / PRC
Related business
None
Manufacturer
Unknown
Mission
Operational spacecraft
Bus & Motor
Unknown
Mass
Unknown
Launch date (UTC)
2026-04-25 (6 days ago)
Launch vehicle
Unknown
Launch site
Taiyaun Space Center, China (TSC)
Object type
Payload
Rocket body
Debris
Shape & HBR
Unknown
Radar Cross Section
RCS unknown

Expand to show TLE details & history
Last TLE update: 3 days ago

TLE from 3 days ago
0 PRSC-E03
1 68835U 26092A   26118.07999911  .00002925  00000-0  20185-3 0  9999
2 68835  38.0027  25.0972 0004773 334.4350  25.6175 15.06422626   392
Epoch: 2026-04-28T01:55Z
TLE epoch observation values (Epoch: 2026-04-28T01:55:11.923Z)
Latitude
-0.00001°
Longitude
140.23706°
Altitude
543.395 km
Speed
7.594 km/s
True Right ascension
01h 40m 23s
True Declination
0° 00' 00"
Sunlit
Object was in daylight at epoch
Visualization orbit readout
Latitude
Unknown
Longitude
Unknown
Altitude
Unknown
Speed
Unknown
Apparent Right ascension
Unknown
Apparent Declination
Unknown
Sunlit
N/A
Visualization observer readout
Local Sidereal Time
19:14:40
Azimuth
Unknown
Elevation
Unknown
Doppler factor
Unknown
Orbital elements
Apogee altitude
553.197 km
Perigee altitude
546.584 km
Semi-major axis
6,928.028 km
Eccentricity
0.00048
Inclination
38.0027°
RAAN
25.0972°
Arg. of periapsis
334.435°
True anomaly
25.64116°
Mean anomaly
25.6175°
Eccentric anomaly
25.62933°
Mean motion
3.76382 °/min
Orbital period
95.65 mins
BSTAR
0.00020185
Loading maneuver chart data...
Computing Atmospheric mass density...
Loading historical data...
Loading historical data...
Loading historical data...
Loading historical data...
Loading historical data...
Loading historical data...
Loading historical data...
Other satellites on launch #92 in the year 2026 (2026-04-25 UTC)

Documentation

Showing up to 5 results
|